SONATE-2
1 59112U 24043Q   26227.37164932  .00029336  00000-0  32254-3 0  9997
2 59112  97.5593  21.6260 0004794 348.3286  11.7860 15.63128156137128
GRBBeta
1 60237U 24128C   26227.81151994  .00002542  00000-0  18141-3 0  9993
2 60237  61.9914   7.0133 0032410 147.6978 212.6109 15.06999901115250
Curium One
1 60242U 24128H   26227.78672269  .00004769  00000-0  27623-3 0  9996
2 60242  61.9803 354.5565 0031657 142.9204 217.4088 15.13269899115471
ROBUSTA-3A
1 60243U 24128J   26227.78595005  .00004748  00000-0  28144-3 0  9995
2 60243  61.9884 357.3670 0033517 140.2214 220.1349 15.12387411115435
CatSat
1 60246U 24125J   26227.57192378  .00052164  00000-0  50094-3 0  9992
2 60246  97.2017  81.1653 0014960 321.7140  38.3057 15.66312243116667
HYPERVIEW-1G (RS66S)
1 61772U 24199AP  26227.65089155  .01793572  31993-2  12782-2 0  9999
2 61772  97.2556 111.4820 0005323 190.7370 169.3805 16.16897464144111
AO-123
1 61781U 24199AY  26227.83628866  .00005649  00000-0  16059-3 0  9992
2 61781  97.2905  95.9748 0015476  94.1358 266.1655 15.36442243143083
LASARsat
1 62391U 24247Q   26227.85351058  .00025334  00000-0  44687-3 0  9993
2 62391  44.9726 286.0027 0008968 351.7670   8.3072 15.49955150 92566
CroCube
1 62394U 24247T   26227.18843384  .00025783  00000-0  41686-3 0  9994
2 62394  44.9699 285.9882 0009124 355.9637   4.1180 15.52391773 92506
JINJUSat 1B
1 63210U 25052A   26227.68671211  .00010189  00000-0  30046-3 0  9992
2 63210  97.3914 124.5722 0001948 180.6433 179.4808 15.35199583 79223
NUSHSAT 1
1 63211U 25052B   26227.69089693  .00012651  00000-0  33908-3 0  9997
2 63211  97.3887 125.3662 0001516 172.2850 187.8418 15.38126758 79289
TEVEL2-4
1 63213U 25052D   26227.67558846  .00011604  00000-0  32760-3 0  9990
2 63213  97.3812 124.2246 0000654 174.7190 185.4061 15.36532945 79242
TEVEL2-5
1 63214U 25052E   26227.70338750  .00010999  00000-0  31273-3 0  9999
2 63214  97.3807 124.1822 0000509 171.4651 188.6602 15.36327214 79248
TEVEL2-6
1 63215U 25052F   26227.65195056  .00011382  00000-0  32390-3 0  9992
2 63215  97.3813 124.1154 0000423 166.9641 193.1614 15.36291305 79231
TEVEL2-1
1 63217U 25052H   26227.70302399  .00011081  00000-0  32151-3 0  9991
2 63217  97.3783 123.7167 0000307 313.5057  46.6161 15.35689077 79224
TEVEL2-3
1 63218U 25052J   26227.69523078  .00010491  00000-0  30384-3 0  9999
2 63218  97.3788 123.7396 0000205   9.7216 350.4032 15.35758475 79224
TEVEL2-2
1 63219U 25052K   26227.70290394  .00011126  00000-0  32266-3 0  9991
2 63219  97.3783 123.7203 0000351 312.1571  47.9642 15.35702289 79221
TEVEL2-9
1 63237U 25052AD  26227.69483223  .00009944  00000-0  30868-3 0  9995
2 63237  97.3845 122.9517 0003821 302.7476  57.3398 15.33573904 79145
TEVEL2-7
1 63238U 25052AE  26227.68277062  .00009470  00000-0  29725-3 0  9991
2 63238  97.3850 122.8285 0003859 302.5507  57.5363 15.33233671 79134
TEVEL2-8
1 63239U 25052AF  26227.69156647  .00009615  00000-0  30186-3 0  9992
2 63239  97.3848 122.8125 0003919 305.1164  54.9711 15.33221600 79137
SPIRONE
1 66657U 25274H   26227.74318083  .00001294  00000-0  12740-3 0  9996
2 66657  97.7467 156.1891 0012199 168.3724 191.7780 14.93749866 39110
K-HERO
1 66660U 25274L   26227.73151632  .00000835  00000-0  83315-4 0  9991
2 66660  97.7473 156.3818 0013898 173.8021 186.3373 14.94148844 39129
SNUGLITE-III DURI
1 66661U 25274M   26227.78514237  .00000504  00000-0  52385-4 0  9997
2 66661  97.7471 156.4556 0014476 175.0445 185.0921 14.94167581 39130
SAKHACUBE-CHOLBON
1 67290U 25313AU  26227.46210096  .00005683  00000-0  22465-3 0  9999
2 67290  97.3899 301.7852 0010371 140.2146 219.9855 15.25833550 35012
RS95S (QMR-KWT-2)
1 67291U 25313AV  26227.19071655  .00007855  00000-0  29281-3 0  9992
2 67291  97.3895 301.8340 0010013 139.1767 221.0224 15.27665668 34996
Ten-Koh2
1 68261U 25241B   26226.89392595  .00004773  00000-0  20487-3 0  9990
2 68261  51.6592  40.0808 0005920 334.3203  25.7481 15.24511884 23862
JACK-002
1 68417U 26067B   26227.42032998  .00003617  00000-0  17097-3 0  9997
2 68417  97.4616 185.3217 0004067  79.7849 280.3845 15.20027183 20943
DISCO 2
1 68431U 26067R   26227.84588716  .00005150  00000-0  24325-3 0  9999
2 68431  97.4651 185.7357 0003790 116.2571 243.9054 15.19859991 21001
HADES-SA (SpinnyONE)
1 68446U 26067AG  26227.60066450  .00010183  00000-0  46352-3 0  9991
2 68446  97.4444 185.1012 0004741 207.3152 152.7834 15.20884828 20958
PARUS-6U1
1 68456U 26067AS  26227.78599707  .00003267  00000-0  16370-3 0  9999
2 68456  97.4602 185.2721 0004531 196.9525 163.1558 15.18060025 20970
SAL-E
1 68458U 26067AU  26227.43818040  .00004260  00000-0  20974-3 0  9996
2 68458  97.4525 184.8377 0004317 208.9048 151.1948 15.18505073 20926
FSI-SAT 2
1 68792U 26088A   26227.84350039  .00002108  00000-0  14381-3 0  9998
2 68792  97.5143  15.6491 0012806 262.7176  97.2596 15.07230012 17273
OrigamiSat 2
1 68795U 26088D   26227.82806652  .00008701  00000-0  53957-3 0  9993
2 68795  97.5144  15.9764 0014052 229.9407 130.0591 15.09891570 17297
ARICA 2
1 68796U 26088E   26227.85543766  .00002072  00000-0  13542-3 0  9992
2 68796  97.5139  15.9251 0014342 230.4198 129.5764 15.08825334 17298
WASEDA-SAT-ZERO-II
1 68797U 26088F   26227.83917779  .00003890  00000-0  24815-3 0  9994
2 68797  97.5134  15.9424 0014306 229.7718 130.2260 15.09204301 17291
MANGARO-II-Piscus
1 68798U 26088G   26227.69577097  .00002103  00000-0  13606-3 0  9996
2 68798  97.5146  15.8428 0017678 234.3452 125.6131 15.09137321 17270
CO-128
1 69872U 26156D   26227.67576896  .00000623  00000-0  68951-4 0  9999
2 69872  97.7476 127.4092 0003493   6.1008 354.0252 14.90760479  5860
MARINA
1 69920U 26156BD  26227.77656355  .00000870  00000-0  91227-4 0  9999
2 69920  97.7486 127.5890 0008389  33.9590 326.2164 14.92057163  5881
IO-86
1 40931U          26199.45381863  .00000000  00000-0  77536-4 0    07
2 40931   6.0006 322.6653 0012733 338.8432 273.6875 14.79294310    03
LILIUM-4                
1 71922C 26067AC  26089.50133053 -.00014632  00000+0 -74472-3 0    04
2 71922  97.4497  49.1617 0004341   5.9603 355.7042 15.16896692    16
